TimeEST,TemperatureF,Dew PointF,Humidity,Sea Level PressureIn,VisibilityMPH,Wind Direction,Wind SpeedMPH,Gust SpeedMPH,PrecipitationIn,Events,Conditions,WindDirDegrees,DateUTC
12:15 AM,36.7,32.0,83,30.38,10.0,NNE,3.5,-,N/A,,Clear,20,2012-12-13 05:15:00
12:35 AM,36.5,32.0,84,30.38,10.0,Calm,Calm,-,N/A,,Clear,0,2012-12-13 05:35:00
12:55 AM,36.0,32.0,86,30.39,10.0,Calm,Calm,-,N/A,,Clear,0,2012-12-13 05:55:00
1:15 AM,36.5,32.0,84,30.38,10.0,Calm,Calm,-,N/A,,Clear,0,2012-12-13 06:15:00
1:35 AM,36.0,31.8,85,30.40,10.0,Calm,Calm,-,N/A,,Clear,0,2012-12-13 06:35:00
1:55 AM,36.5,31.6,83,30.39,10.0,NNE,3.5,-,N/A,,Clear,20,2012-12-13 06:55:00
2:15 AM,36.5,31.3,81,30.40,10.0,Calm,Calm,-,N/A,,Clear,0,2012-12-13 07:15:00
2:55 AM,33.6,32.0,94,30.42,10.0,Calm,Calm,-,N/A,,Clear,0,2012-12-13 07:55:00
3:15 AM,32.5,32.0,98,30.41,10.0,Calm,Calm,-,N/A,,Clear,0,2012-12-13 08:15:00
3:35 AM,32.2,31.8,99,30.41,10.0,Calm,Calm,-,N/A,,Clear,0,2012-12-13 08:35:00
3:55 AM,32.0,31.8,99,30.41,10.0,Calm,Calm,-,N/A,,Clear,0,2012-12-13 08:55:00
4:15 AM,31.5,31.5,100,30.41,10.0,Calm,Calm,-,N/A,,Clear,0,2012-12-13 09:15:00
4:35 AM,31.1,30.7,99,30.41,10.0,Calm,Calm,-,N/A,,Clear,0,2012-12-13 09:35:00
4:55 AM,30.2,30.2,100,30.41,10.0,Calm,Calm,-,N/A,,Clear,0,2012-12-13 09:55:00
5:15 AM,29.3,28.8,98,30.41,10.0,Calm,Calm,-,N/A,,Clear,0,2012-12-13 10:15:00
5:35 AM,28.2,27.9,99,30.41,10.0,Calm,Calm,-,N/A,,Clear,0,2012-12-13 10:35:00
5:55 AM,28.4,28.4,100,30.42,10.0,Calm,Calm,-,N/A,,Clear,0,2012-12-13 10:55:00
6:15 AM,30.2,30.2,100,30.42,10.0,Calm,Calm,-,N/A,,Clear,0,2012-12-13 11:15:00
6:55 AM,27.7,27.1,98,30.43,10.0,Calm,Calm,-,N/A,,Clear,0,2012-12-13 11:55:00
7:15 AM,33.3,29.5,86,30.43,10.0,NNE,3.5,-,N/A,,Clear,30,2012-12-13 12:15:00
7:35 AM,33.1,29.1,85,30.43,10.0,Calm,Calm,-,N/A,,Clear,0,2012-12-13 12:35:00
7:55 AM,30.7,28.0,90,30.43,10.0,Calm,Calm,-,N/A,,Clear,0,2012-12-13 12:55:00
8:15 AM,30.9,28.8,92,30.43,10.0,Calm,Calm,-,N/A,,Clear,0,2012-12-13 13:15:00
8:35 AM,34.7,32.0,90,30.43,10.0,Calm,Calm,-,N/A,,Clear,0,2012-12-13 13:35:00
8:55 AM,38.3,31.5,76,30.44,10.0,North,4.6,-,N/A,,Clear,360,2012-12-13 13:55:00
9:15 AM,40.5,32.0,72,30.45,10.0,North,4.6,-,N/A,,Clear,10,2012-12-13 14:15:00
9:35 AM,41.9,32.0,68,30.46,10.0,North,5.8,-,N/A,,Clear,360,2012-12-13 14:35:00
9:55 AM,43.7,32.0,63,30.46,10.0,NNE,6.9,-,N/A,,Clear,20,2012-12-13 14:55:00
10:15 AM,44.6,32.2,62,30.46,10.0,NE,6.9,-,N/A,,Clear,40,2012-12-13 15:15:00
10:55 AM,45.9,32.0,58,30.46,10.0,NNE,6.9,-,N/A,,Clear,20,2012-12-13 15:55:00
11:15 AM,46.6,32.0,57,30.45,10.0,NNE,8.1,-,N/A,,Clear,30,2012-12-13 16:15:00
11:35 AM,47.3,32.2,56,30.43,10.0,North,4.6,-,N/A,,Clear,360,2012-12-13 16:35:00
11:55 AM,47.8,32.0,54,30.43,10.0,ENE,5.8,-,N/A,,Clear,70,2012-12-13 16:55:00
12:15 PM,47.7,32.0,55,30.42,10.0,North,8.1,-,N/A,,Clear,10,2012-12-13 17:15:00
12:35 PM,48.0,32.2,54,30.41,10.0,Calm,Calm,-,N/A,,Clear,0,2012-12-13 17:35:00
12:55 PM,48.6,32.5,54,30.41,10.0,Calm,Calm,-,N/A,,Clear,0,2012-12-13 17:55:00
1:15 PM,48.6,31.6,52,30.40,10.0,Calm,Calm,-,N/A,,Clear,0,2012-12-13 18:15:00
1:35 PM,49.8,31.8,50,30.39,10.0,North,3.5,-,N/A,,Clear,10,2012-12-13 18:35:00
1:55 PM,49.3,30.7,49,30.40,10.0,North,6.9,-,N/A,,Clear,10,2012-12-13 18:55:00
2:15 PM,49.5,30.0,47,30.40,10.0,North,4.6,-,N/A,,Clear,350,2012-12-13 19:15:00
2:35 PM,49.5,29.7,47,30.39,10.0,Calm,Calm,-,N/A,,Clear,0,2012-12-13 19:35:00
2:55 PM,49.6,30.0,47,30.38,10.0,NNE,3.5,-,N/A,,Clear,30,2012-12-13 19:55:00
3:15 PM,49.6,29.5,46,30.38,10.0,North,3.5,-,N/A,,Clear,350,2012-12-13 20:15:00
3:35 PM,49.1,29.1,46,30.37,10.0,Calm,Calm,-,N/A,,Clear,0,2012-12-13 20:35:00
3:55 PM,49.3,29.1,46,30.37,10.0,Calm,Calm,-,N/A,,Clear,0,2012-12-13 20:55:00
4:15 PM,47.1,31.5,55,30.38,10.0,North,3.5,-,N/A,,Clear,350,2012-12-13 21:15:00
4:35 PM,44.8,32.0,61,30.38,10.0,Calm,Calm,-,N/A,,Clear,0,2012-12-13 21:35:00
4:55 PM,41.2,31.3,68,30.37,10.0,Calm,Calm,-,N/A,,Clear,0,2012-12-13 21:55:00
5:15 PM,38.8,30.0,71,30.37,10.0,Calm,Calm,-,N/A,,Clear,0,2012-12-13 22:15:00
6:35 PM,31.8,28.9,89,30.38,10.0,Calm,Calm,-,N/A,,Clear,0,2012-12-13 23:35:00
7:15 PM,29.7,27.3,91,30.37,10.0,Calm,Calm,-,N/A,,Clear,0,2012-12-14 00:15:00
7:55 PM,28.6,27.5,96,30.36,10.0,Calm,Calm,-,N/A,,Clear,0,2012-12-14 00:55:00
8:15 PM,26.6,26.4,99,30.38,10.0,Calm,Calm,-,N/A,,Clear,0,2012-12-14 01:15:00
8:55 PM,26.4,25.9,98,30.36,10.0,Calm,Calm,-,N/A,,Clear,0,2012-12-14 01:55:00
9:15 PM,25.9,25.5,99,30.36,10.0,Calm,Calm,-,N/A,,Clear,0,2012-12-14 02:15:00
9:35 PM,26.2,26.1,99,30.36,10.0,Calm,Calm,-,N/A,,Clear,0,2012-12-14 02:35:00
9:55 PM,26.8,26.8,100,30.35,10.0,Calm,Calm,-,N/A,,Clear,0,2012-12-14 02:55:00
10:15 PM,24.4,24.4,100,30.35,10.0,Calm,Calm,-,N/A,,Clear,0,2012-12-14 03:15:00
10:35 PM,26.1,26.1,100,30.35,10.0,Calm,Calm,-,N/A,,Clear,0,2012-12-14 03:35:00
10:55 PM,25.2,25.2,100,30.35,10.0,Calm,Calm,-,N/A,,Clear,0,2012-12-14 03:55:00
11:15 PM,25.0,25.0,100,30.35,10.0,Calm,Calm,-,N/A,,Clear,0,2012-12-14 04:15:00
11:35 PM,24.6,24.6,100,30.35,10.0,Calm,Calm,-,N/A,,Clear,0,2012-12-14 04:35:00
11:55 PM,23.9,23.9,100,30.34,10.0,Calm,Calm,-,N/A,,Clear,0,2012-12-14 04:55:00